RH
79 75 74 74 58 50 46 46 41 36 39 43 50 54 56 59 61 63 75 71 66 70 72 77 70 65 64 61 61 69 72 72 69
40 43 51 58 57 51 46 45 38 28 30 32 36 49 49 53 54 54 58 68 66 59 60 58 60 67 67 67 69 70 70 69 70
29 28 31 34 40 46 45 43 41 33 26 27 30 35 42 47 44 45 44 52 61 69 65 62 61 65 71 70 69 68 67 63 59
23 22 20 22 22 26 39 39 40 35 28 29 32 33 35 39 39 38 37 38 45 49 56 65 71 72 63 55 56 54 51 51 49
20 18 15 15 16 19 19 36 41 34 24 27 31 34 35 37 34 36 35 36 36 36 41 47 49 49 49 53 51 46 44 41 41
19 16 13 12 14 18 20 36 45 31 24 27 31 35 36 38 34 33 31 32 34 34 35 35 37 40 44 42 38 35 36 36 37
17 13 11 11 12 15 28 34 34 23 23 26 30 33 39 39 37 33 34 31 32 37 36 35 36 33 36 40 37 35 36 37 38
15 16 13 13 14 19 26 26 28 25 26 26 28 34 39 36 33 32 29 32 32 37 34 35 39 32 33 32 33 34 38 40 39
19 20 23 20 17 22 28 29 29 30 31 31 32 33 35 36 35 32 30 28 30 38 45 46 43 43 37 36 35 37 40 39 37
18 20 24 25 29 33 35 33 33 31 28 28 32 33 34 34 35 34 32 29 29 39 50 45 45 52 51 42 40 39 38 37 36
17 19 22 25 27 31 33 34 33 29 25 27 28 31 33 35 32 31 30 29 28 32 42 48 39 58 56 47 42 39 37 36 36
17 18 20 24 30 28 28 30 31 28 26 25 27 33 30 35 33 33 31 29 30 30 37 44 44 57 58 53 50 44 39 38 38
18 19 20 22 26 28 27 28 32 27 25 26 33 34 34 34 33 35 33 31 31 31 32 41 42 43 55 55 50 49 44 40 38
21 22 22 23 25 27 31 32 31 26 28 27 33 35 35 35 37 37 36 34 33 31 30 35 42 41 45 54 54 50 47 45 40
25 25 26 25 27 27 28 30 32 33 31 28 29 34 35 35 37 36 37 37 36 35 31 32 37 41 41 48 51 53 49 48 44
30 30 30 28 29 30 30 30 35 35 33 32 31 30 36 36 36 37 37 37 36 37 35 34 34 40 42 44 48 50 50 48 44
36 35 34 33 32 34 33 34 35 34 34 33 34 34 30 30 30 34 33 36 37 38 35 36 35 35 42 44 47 49 48 48 44
43 40 39 38 37 36 37 37 38 35 37 36 36 35 33 30 30 31 33 33 34 34 34 36 36 35 35 42 46 48 50 48 47
46 46 44 41 40 39 41 41 40 40 39 40 40 40 37 35 33 31 30 31 32 33 33 36 37 36 36 40 46 47 47 47 48
54 50 47 46 45 43 43 44 44 44 43 43 43 42 41 41 37 32 30 29 28 32 33 36 35 35 36 41 47 44 44 43 44